Flag for Germany Weather past 2 weeks in Schwäbisch Hall, Baden-Württemberg, Germany

Now
48 °F

Overcast.


Feels Like: 43 °F
Forecast: 36 / 47 °F
Wind: 10 mph from West

Location: Oehringen

Current Time: Dec 23, 2014 at 12:45:35 AM

Latest Report: Dec 23, 2014 at 12:00 AM


Visibility: 44 mi

Pressure: 30.27 "Hg

Humidity: 77%

Dew point: 41 °F

Location of Schwäbisch HallLocation

Historic Weather in Schwäbisch Hall — Graph

°F

Schwäbisch Hall temperature yesterday

Maximum temperature yesterday: 47 °F (at 11:00 PM)
Minimum temperature yesterday: 43 °F (at 2:00 AM)
Average temperature yesterday: 44 °F

Past Weeks' High & Low Weather Summary

 TemperatureHumidityPressure
High53 °F (Dec 18, 8:00 PM)100% (Dec 15, 4:00 AM)30.54 "Hg (Dec 15, 4:00 AM)
Low27 °F (Dec 9, 6:00 AM)57% (Dec 13, 10:00 AM)29.72 "Hg (Dec 12, 6:00 PM)
Average42 °F86%30.10 "Hg
* Reported Dec 7 11:00 PM — Dec 22 11:00 PM, Schwäbisch Hall, Weather by CustomWeather, © 2014

Note: Actual official high and low records may vary slightly from our data, if they occured in-between our weather recording intervals... More about our weather records

Advertising

Schwäbisch Hall weather history for previous 24 hours

 ConditionsComfort  
Time TempWeatherWind HumidityBarometerVisibility
11:00 PM
Dec 22
47 °FOvercast.8 mph77%30.28 "Hg43 mi
10:00 PM47 °FOvercast.9 mph76%30.27 "Hg31 mi
9:00 PM47 °FOvercast.9 mph74%30.28 "Hg37 mi
8:00 PM46 °FOvercast.9 mph73%30.27 "Hg31 mi
7:00 PM46 °FOvercast.8 mph73%30.27 "Hg34 mi
6:00 PM45 °FOvercast.9 mph75%30.26 "Hg25 mi
5:00 PM44 °FOvercast.9 mph75%30.28 "Hg25 mi
4:00 PM44 °FScattered clouds.8 mph75%30.27 "Hg37 mi
3:00 PM44 °FOvercast.7 mph73%30.27 "Hg40 mi
2:00 PM45 °FOvercast.7 mph74%30.30 "Hg37 mi
1:00 PM44 °FOvercast.8 mph74%30.32 "Hg40 mi
12:00 PM44 °FOvercast.8 mph74%30.34 "Hg34 mi
11:00 AM44 °FOvercast.9 mph75%30.36 "Hg40 mi
10:00 AM44 °FOvercast.9 mph75%30.35 "Hg43 mi
9:00 AM43 °FOvercast.9 mph74%30.35 "Hg34 mi
8:00 AM43 °FOvercast.8 mph74%30.34 "Hg31 mi
7:00 AM43 °FOvercast.10 mph74%30.33 "Hg34 mi
6:00 AM43 °FOvercast.8 mph72%30.33 "Hg31 mi
5:00 AM43 °FOvercast.9 mph72%30.34 "Hg37 mi
4:00 AM43 °FOvercast.12 mph73%30.36 "Hg37 mi
3:00 AM43 °FOvercast.10 mph74%30.38 "Hg34 mi
2:00 AM43 °FOvercast.10 mph75%30.40 "Hg28 mi
1:00 AM43 °FOvercast.8 mph73%30.40 "Hg34 mi
12:00 AM43 °FOvercast.8 mph73%30.40 "Hg31 mi
Weather by CustomWeather, © 2014

See weather overviewHow to use our weather pages